Lincoln, IL

2:03 AM CST on November 15, 2019 (GMT -0600)
Lincoln

Weather History for KAAA - October, 2019

Change the Weather History Date:

Tuesday, October 22, 2019

  Actual Average (KSPI) Record (KSPI)
Temperature  
Mean Temperature 50 °F -  
Max Temperature 58 °F 65 °F 85 °F (1963)
Min Temperature 42 °F 42 °F 23 °F (1976)
Degree Days  
Heating Degree Days 14    
Moisture  
Dew Point 38 °F    
Average Humidity 61    
Maximum Humidity 75    
Minimum Humidity 45    
Precipitation  
Precipitation 0.00 in - - ()
Sea Level Pressure  
Sea Level Pressure 29.78 in    
Wind  
Wind Speed 7 mph ()    
Max Wind Speed 14 mph    
Max Gust Speed 26 mph    
Visibility 10.0 miles    
Events Rain    
Averages and records for this station are not official NWS values.
T = Trace of Precipitation, MM = Missing Value Source: Averaged Metar Reports

Daily Weather History Graph

Daily Weather History Graph

Search for Another Location

Airport or City:

Astronomy

Oct. 22, 2019 Rise Set
Actual Time 7:15 AM CDT 6:07 PM CDT
Civil Twilight 6:47 AM CDT 6:35 PM CDT
Nautical Twilight 6:15 AM CDT 7:06 PM CDT
Astronomical Twilight 5:44 AM CDT 7:38 PM CDT
Moon 12:24 AM CDT (10/22) 3:17 PM CDT (10/22)
Length of Visible Light 11h 47m
Length of Day
10h 52m
Last Quarter, 37% of the Moon is Illuminated
Oct 22
Last Quarter
Oct 27
New
Nov 4
First Quarter
Nov 12
Full
Nov 19
Last Quarter

Hourly Weather History & Observations

Time (CDT) Temp. Windchill Dew Point Humidity Pressure Visibility Wind Dir Wind Speed Gust Speed Precip Events Conditions
12:15 AM 52.3 °F - 41.0 °F 65% 29.65 in 10.0 mi SW 5.8 mph - N/A   Clear
12:35 AM 52.0 °F - 41.0 °F 66% 29.66 in 10.0 mi SW 6.9 mph - N/A   Clear
12:55 AM 51.4 °F - 41.0 °F 68% 29.66 in 10.0 mi SW 6.9 mph - N/A   Clear
1:15 AM 51.1 °F - 41.2 °F 69% 29.65 in 10.0 mi SW 9.2 mph - N/A   Clear
1:35 AM 50.9 °F - 41.2 °F 69% 29.65 in 10.0 mi SW 4.6 mph - N/A   Clear
1:55 AM 50.9 °F - 41.2 °F 69% 29.66 in 10.0 mi SSW 5.8 mph - N/A   Clear
2:15 AM 50.2 °F - 41.4 °F 72% 29.65 in 10.0 mi SSW 9.2 mph - N/A   Clear
2:35 AM 50.0 °F - 41.4 °F 72% 29.66 in 10.0 mi SW 8.1 mph - N/A   Scattered Clouds
2:55 AM 49.3 °F - 41.5 °F 75% 29.66 in 10.0 mi SW 5.8 mph - N/A   Scattered Clouds
3:15 AM 50.4 °F - 41.9 °F 73% 29.65 in 10.0 mi SW 8.1 mph - N/A   Mostly Cloudy
3:35 AM 51.1 °F - 41.9 °F 71% 29.65 in 10.0 mi WSW 6.9 mph - N/A   Overcast
3:55 AM 50.9 °F - 41.9 °F 71% 29.65 in 10.0 mi SW 8.1 mph - N/A   Overcast
4:15 AM 50.9 °F - 41.9 °F 71% 29.65 in 10.0 mi WSW 4.6 mph - N/A   Overcast
4:35 AM 51.1 °F - 41.9 °F 71% 29.66 in 10.0 mi WSW 8.1 mph - N/A   Overcast
4:55 AM 51.3 °F - 41.9 °F 70% 29.66 in 10.0 mi WSW 11.5 mph 19.6 mph N/A   Overcast
5:15 AM 51.4 °F - 41.7 °F 69% 29.66 in 10.0 mi WSW 8.1 mph 16.1 mph N/A   Overcast
5:35 AM 51.4 °F - 41.4 °F 68% 29.67 in 10.0 mi WSW 10.4 mph 16.1 mph N/A   Overcast
5:55 AM 51.4 °F - 41.2 °F 68% 29.67 in 10.0 mi WSW 9.2 mph - N/A   Overcast
6:15 AM 51.4 °F - 41.4 °F 68% 29.68 in 10.0 mi WSW 13.8 mph 19.6 mph N/A Rain Rain
6:35 AM 50.9 °F - 41.5 °F 70% 29.68 in 10.0 mi WSW 6.9 mph 16.1 mph N/A   Overcast
7:15 AM 50.9 °F - 41.0 °F 69% 29.69 in 10.0 mi WSW 8.1 mph 17.3 mph N/A   Overcast
7:35 AM 50.5 °F - 41.0 °F 70% 29.69 in 10.0 mi WSW 9.2 mph - N/A   Overcast
7:55 AM 50.9 °F - 41.0 °F 69% 29.70 in 10.0 mi WSW 12.7 mph 18.4 mph N/A   Overcast
8:15 AM 50.9 °F - 41.0 °F 69% 29.71 in 10.0 mi WSW 8.1 mph 17.3 mph N/A   Overcast
8:35 AM 51.6 °F - 40.8 °F 67% 29.72 in 10.0 mi WSW 11.5 mph 23.0 mph N/A   Mostly Cloudy
8:55 AM 52.0 °F - 41.0 °F 66% 29.73 in 10.0 mi WSW 10.4 mph 20.7 mph N/A   Mostly Cloudy
9:15 AM 51.4 °F - 40.6 °F 67% 29.74 in 10.0 mi WSW 9.2 mph - N/A   Overcast
9:35 AM 50.9 °F - 41.0 °F 69% 29.74 in 10.0 mi WSW 9.2 mph - N/A   Overcast
9:55 AM 51.4 °F - 41.0 °F 68% 29.75 in 10.0 mi WSW 9.2 mph 21.9 mph N/A   Overcast
10:15 AM 51.8 °F - 40.5 °F 65% 29.75 in 10.0 mi WSW 13.8 mph 19.6 mph N/A   Overcast
10:35 AM 52.0 °F - 40.5 °F 65% 29.76 in 10.0 mi WSW 11.5 mph 24.2 mph N/A   Overcast
10:55 AM 51.8 °F - 39.6 °F 63% 29.77 in 10.0 mi West 9.2 mph 26.5 mph N/A   Overcast
11:15 AM 51.8 °F - 40.3 °F 65% 29.78 in 10.0 mi West 6.9 mph 18.4 mph N/A   Overcast
11:35 AM 52.0 °F - 40.8 °F 66% 29.79 in 10.0 mi WSW 10.4 mph 17.3 mph N/A   Overcast
11:55 AM 54.0 °F - 39.6 °F 58% 29.79 in 10.0 mi WSW 11.5 mph 23.0 mph N/A   Overcast
12:15 PM 54.3 °F - 40.1 °F 59% 29.79 in 10.0 mi WSW 10.4 mph 18.4 mph N/A   Mostly Cloudy
12:35 PM 55.6 °F - 39.7 °F 55% 29.79 in 10.0 mi West 13.8 mph 20.7 mph N/A   Overcast
12:55 PM 55.8 °F - 39.6 °F 55% 29.78 in 10.0 mi WSW 10.4 mph 20.7 mph N/A   Mostly Cloudy
1:15 PM 56.3 °F - 39.2 °F 53% 29.78 in 10.0 mi WSW 11.5 mph 19.6 mph N/A   Mostly Cloudy
1:35 PM 57.2 °F - 39.2 °F 51% 29.77 in 10.0 mi West 8.1 mph 18.4 mph N/A   Scattered Clouds
1:55 PM 58.1 °F - 39.6 °F 50% 29.77 in 10.0 mi WSW 11.5 mph 20.7 mph N/A   Scattered Clouds
2:15 PM 58.1 °F - 38.8 °F 49% 29.77 in 10.0 mi West 11.5 mph 23.0 mph N/A   Scattered Clouds
2:35 PM 58.5 °F - 39.0 °F 48% 29.78 in 10.0 mi West 8.1 mph 21.9 mph N/A   Scattered Clouds
2:55 PM 58.1 °F - 38.8 °F 49% 29.78 in 10.0 mi West 13.8 mph 23.0 mph N/A   Mostly Cloudy
3:15 PM 57.9 °F - 39.0 °F 49% 29.79 in 10.0 mi WSW 11.5 mph 20.7 mph N/A   Mostly Cloudy
3:35 PM 57.4 °F - 38.7 °F 50% 29.80 in 10.0 mi WSW 9.2 mph 18.4 mph N/A   Overcast
3:55 PM 57.4 °F - 38.1 °F 49% 29.81 in 10.0 mi West 11.5 mph 21.9 mph N/A   Mostly Cloudy
4:35 PM 57.2 °F - 37.6 °F 48% 29.82 in 10.0 mi West 9.2 mph 18.4 mph N/A   Mostly Cloudy
4:55 PM 56.7 °F - 36.9 °F 48% 29.83 in 10.0 mi WSW 8.1 mph 24.2 mph N/A   Scattered Clouds
5:15 PM 57.0 °F - 35.8 °F 45% 29.83 in 10.0 mi West 9.2 mph 20.7 mph N/A   Mostly Cloudy
5:35 PM 56.3 °F - 34.9 °F 45% 29.84 in 10.0 mi WSW 11.5 mph 18.4 mph N/A   Mostly Cloudy
5:55 PM 55.4 °F - 35.6 °F 47% 29.85 in 10.0 mi West 9.2 mph 17.3 mph N/A   Mostly Cloudy
6:15 PM 54.9 °F - 34.3 °F 46% 29.86 in 10.0 mi West 6.9 mph 16.1 mph N/A   Mostly Cloudy
6:35 PM 54.1 °F - 33.3 °F 45% 29.87 in 10.0 mi WSW 8.1 mph 16.1 mph N/A   Mostly Cloudy
6:55 PM 53.1 °F - 33.6 °F 48% 29.88 in 10.0 mi WSW 5.8 mph - N/A   Scattered Clouds
7:15 PM 52.7 °F - 33.1 °F 47% 29.89 in 10.0 mi WSW 5.8 mph - N/A   Scattered Clouds
7:35 PM 52.0 °F - 32.9 °F 48% 29.90 in 10.0 mi WSW 5.8 mph - N/A   Scattered Clouds
7:55 PM 51.1 °F - 33.1 °F 50% 29.91 in 10.0 mi WSW 4.6 mph - N/A   Mostly Cloudy
8:15 PM 50.0 °F - 33.1 °F 52% 29.91 in 10.0 mi WSW 3.5 mph - N/A   Scattered Clouds
8:35 PM 48.9 °F - 33.3 °F 55% 29.91 in 10.0 mi SW 3.5 mph - N/A   Scattered Clouds
8:55 PM 48.2 °F - 33.4 °F 57% 29.92 in 10.0 mi WSW 3.5 mph - N/A   Scattered Clouds
9:15 PM 47.7 °F - 33.1 °F 57% 29.92 in 10.0 mi SW 3.5 mph - N/A   Clear
9:35 PM 46.4 °F 45.2 °F 33.4 °F 61% 29.93 in 10.0 mi SW 3.5 mph - N/A   Clear
9:55 PM 45.9 °F - 33.8 °F 63% 29.94 in 10.0 mi Calm Calm - N/A   Mostly Cloudy
10:15 PM 45.5 °F 44.2 °F 33.8 °F 64% 29.94 in 10.0 mi SW 3.5 mph - N/A   Scattered Clouds
10:35 PM 45.5 °F 43.2 °F 33.1 °F 62% 29.94 in 10.0 mi WSW 4.6 mph - N/A   Clear
10:55 PM 44.6 °F 43.1 °F 32.9 °F 64% 29.94 in 10.0 mi SW 3.5 mph - N/A   Clear
11:15 PM 43.9 °F 42.3 °F 32.9 °F 65% 29.94 in 10.0 mi SW 3.5 mph - N/A   Clear
11:35 PM 43.0 °F 41.3 °F 33.1 °F 68% 29.95 in 10.0 mi WSW 3.5 mph - N/A   Clear
11:55 PM 42.1 °F - 33.1 °F 70% 29.94 in 10.0 mi Calm Calm - N/A   Clear